Location: Vinland
(47.7731°N, 122.6974°W)
Time: 19:29:37
(UTC+00:00)

Vanguard 1 Rocket - Pass Details

Date: 23 March 2023
Orbit: 654 x 4221 km, 34.3° (Epoch: 29 May)

Event Time Altitude Azimuth Distance (km) Brightness Sun altitude
Exits shadow 11:19:28 33° 184° (S) 2,334 9.1 -27.2°
Drops below altitude 10° 11:24:41 10° 138° (SE) 3,003 10.1 -26.5°
Sets 11:27:04 0° 128° (SE) 3,679 10.7 -26.2°
